This demonstration page uses our WeatherBlox Daily Observations layout. Learn more.

Left ArrowRight Arrow

36.17497, -115.13722

Hourly Observations for June 6, 2021

Temp ( °F °C ) Dew Point ( °F °C ) Humidity (%) Winds ( mph kmh ) Pressure ( in mb ) Visibility ( mi km ) Precip ( " mm )
12:53 am 00:53 Clear 91 32.8 27 -2.8 10 10 SSE 14 22 29.61 1003 10 16 N/A
1:53 am 01:53 Clear 90 32.2 34 1.1 14 14 S 14 22 29.62 1003 10 16 N/A
2:53 am 02:53 Clear 89 31.7 35 1.7 15 15 S 12 19 29.61 1003 10 16 N/A
3:53 am 03:53 Clear 87 30.6 37 2.8 17 17 S 7 11 29.62 1003 10 16 N/A
4:53 am 04:53 Clear 83 28.3 37 2.8 19 19 E 3 6 29.64 1004 10 16 N/A
5:53 am 05:53 Sunny 83 28.3 38 3.3 20 20 ESE 8 13 29.65 1004 10 16 N/A
6:53 am 06:53 Sunny 86 30 39 3.9 19 19 ESE 7 11 29.67 1005 10 16 N/A
7:53 am 07:53 Sunny 88 31.1 36 2.2 16 16 E 8 13 29.68 1005 10 16 N/A
8:53 am 08:53 Sunny 91 32.8 35 1.7 14 14 E 12 19 29.68 1005 10 16 N/A
9:53 am 09:53 Sunny 95 35 36 2.2 13 13 ESE 13 20 29.67 1005 10 16 N/A
10:53 am 10:53 Sunny 98 36.7 34 1.1 11 11 ESE 14 22 29.67 1005 10 16 N/A
11:53 am 11:53 Sunny 100 37.8 31 -0.6 9 9 SSE 17 28 29.65 1004 10 16 N/A
12:53 pm 12:53 Sunny 102 38.9 36 2.2 10 10 SSE 17 28 29.62 1003 10 16 N/A
1:53 pm 13:53 Sunny 102 38.9 30 -1.1 8 8 undefined N/A 29.60 1002 10 16 N/A
2:53 pm 14:53 Sunny 104 40 31 -0.6 8 8 SSE 12 19 29.57 1001 10 16 N/A
3:53 pm 15:53 Sunny 103 39.4 31 -0.6 8 8 SW 17 28 29.56 1001 10 16 N/A
4:53 pm 16:53 Sunny 104 40 32 undefined 8 8 SW 14 22 29.55 1001 10 16 N/A
5:53 pm 17:53 Sunny 102 38.9 29 -1.7 8 8 S 16 26 29.53 1000 10 16 N/A
6:53 pm 18:53 Sunny 100 37.8 29 -1.7 8 8 SSW 15 24 29.54 1000 10 16 N/A
7:53 pm 19:53 Sunny 98 36.7 29 -1.7 9 9 SSW 14 22 29.55 1001 10 16 N/A
8:53 pm 20:53 Clear 96 35.6 27 -2.8 8 8 S 16 26 29.56 1001 10 16 N/A
9:53 pm 21:53 Clear 94 34.4 27 -2.8 9 9 S 14 22 29.58 1002 10 16 N/A
10:53 pm 22:53 Clear 92 33.3 28 -2.2 10 10 S 14 22 29.59 1002 10 16 N/A
11:53 pm 23:53 Clear 90 32.2 28 -2.2 11 11 S 12 19 29.60 1002 10 16 N/A

Powered by AerisWeather